Regional Weather Roundup
Issued by NWS

Current Version | Previous Version | Graphics & Text | Print | Product List | Glossary On
Versions: 1 2 3 4 5 6 7 8 9 10 11 12 13 14 15 16 17 18 19 20 21 22 23 24 25 26 27 28 29 30 31 32 33 34 35 36 37 38 39 40 41 42 43 44 45 46 47 48 49 50
000
ASHW40 PHFO 261910
RWRHI

WEATHER ROUNDUP FOR HAWAII
NATIONAL WEATHER SERVICE HONOLULU HI
900 AM HST SAT JUL 26 2014

THIS IS AN AUTOMATED REPORT THAT HAS NOT BEEN QUALITY CONTROLLED.

NOTE..."FAIR" INDICATES FEW OR NO CLOUDS BELOW 12,000 FEET WITH NO
SIGNIFICANT WEATHER AND/OR OBSTRUCTIONS TO VISIBILITY.

* - THESE SITES REPORT LIMITED FIELDS

HIZ001>004-262000-
KAUAI-NIIHAU-

CITY           SKY/WX    TMP DP  RH WIND       PRES   REMARKS
LIHUE APT      MOSUNNY   81  68  64 E10       30.00R
PORT ALLEN*      N/A     81 N/A N/A E12         N/A
POIPU*           N/A     82 N/A N/A NE8G15      N/A
PRINCEVILLE*   NOT AVBL
KOKOLE POINT*  NOT AVBL
MOLOAA DAIRY*  NOT AVBL
WAIMEA HTS*    NOT AVBL
PUU OPAE*      NOT AVBL
PUU LUA*       NOT AVBL
MAKAHA RIDGE*  NOT AVBL
$$

HIZ005>011-262000-
OAHU-

CITY           SKY/WX    TMP DP  RH WIND       PRES   REMARKS
HONOLULU       MOSUNNY   83  67  58 NE7       29.97S
KALAELOA       SUNNY     84  68  58 VRB5      29.98S
KANEOHE MCB    PTSUNNY   79  67  66 E10       29.99R
WHEELER FIELD  FAIR      78  68  70 NE10      30.00R
BELLOWS*       NOT AVBL
KAHUKU*        NOT AVBL
WHEELER*       NOT AVBL
WAIANAE HARBOR NOT AVBL
DILLINGHAM*      N/A     84  68  58 NE3         N/A
KAHUKU TRN*      N/A     82  73  74 E8G17       N/A
KAWAILOA*      NOT AVBL
KII*             N/A     81  73  78 CALM        N/A
MAKUA RANGE*     N/A     84  66  54 NE6G13      N/A
OAHU FOREST NW NOT AVBL
SCHOFIELD BRK*   N/A     79  66  65 MISG        N/A
SCHOFIELD S*   NOT AVBL
WAIANAE VLY*   NOT AVBL
KUAOKALA*      NOT AVBL
HONOULIUULI*   NOT AVBL
MOKUOLOE IS*     N/A    N/A N/A N/A MISG        N/A
PALEHUA*       NOT AVBL
WAIAWA PHB*    NOT AVBL
$$

HIZ012>013-262000-
MOLOKAI-

CITY           SKY/WX    TMP DP  RH WIND       PRES   REMARKS
MOLOKAI AIRPT  MOSUNNY   81  71  71 NE12G18   29.99R
KALAUPAPA      NOT AVBL
MAKAPULAPAI*   NOT AVBL
MOLOKAI 1*     NOT AVBL
PUU ALII*      NOT AVBL
$$

HIZ016-262000-
KAHOOLAWE-

CITY           SKY/WX    TMP DP  RH WIND       PRES   REMARKS
KAHOOLAWE*     NOT AVBL
HAKIOAWA*      NOT AVBL
HONOKANAIA*      N/A     83  67  58 VRB14G23  29.98R
KANELOA*         N/A     79  68  69 NE8G18    30.08R
KEALIALALO*    NOT AVBL
LUA MAKIKA*    NOT AVBL
$$

HIZ014>015-262000-
LANAI-

CITY           SKY/WX    TMP DP  RH WIND       PRES   REMARKS
LANAI CITY     FAIR      79  67  66 NE21G28   30.03R
LANAI 1*       NOT AVBL
$$

HIZ017>028-262000-
MAUI-

CITY           SKY/WX    TMP DP  RH WIND       PRES   REMARKS
KAHULUI        MOSUNNY   82  71  69 N14       29.98R
KAPALUA-W MAUI MOSUNNY   82  68  61 NE16      29.98
HANA AIRPORT   MOSUNNY   81  72  74 CALM      30.02S
HANA*          NOT AVBL
HALEAKALA SUMM   N/A     52  39  62 S12G29      N/A
MAALAEA BAY*   NOT AVBL
HALEAKALA*     NOT AVBL
KAUPO GAP*     NOT AVBL
KULA 1*          N/A     62  47  56 NW1G9       N/A
$$

HIZ023>026-262000-
BIG ISLAND OF HAWAII COAST AND LOWER SLOPES-

CITY           SKY/WX    TMP DP  RH WIND       PRES   REMARKS
KAILUA KONA    SUNNY     82  67  60 S10       29.93R
HILO           PTSUNNY   81  69  67 SE3       29.98R
HONOKAA*       NOT AVBL
KAWAIHAE MWT*  NOT AVBL
KAWAIHAE*        N/A     81 N/A N/A W3          N/A
SOUTH POINT*   NOT AVBL
UPOLU AIRPORT* NOT AVBL
KAMUELA*       CLEAR     73  63  68 NE22      30.07R
HAKALAU*         N/A     64  56  76 SE6         N/A
KALOKO-HONOKO* NOT AVBL
PALI 2*          N/A     79  63  57 NE10G18     N/A
KEALAKOMO*       N/A     82  66  57 NE13G20     N/A
KAUPULEHU*     NOT AVBL
KAPAPALA*        N/A     77  66  69 N1G12       N/A
LOWER KAHUKU*  NOT AVBL
PUHE CS*       NOT AVBL
PUHO CS*       NOT AVBL
PTA KEAMUKU*     N/A     70  63  78 NE13G18     N/A
WAIKOLOA*      NOT AVBL
$$

HIZ027>028-262000-
BIG ISLAND OF HAWAII INTERIOR AND SUMMMITS-

CITY           SKY/WX    TMP DP  RH WIND       PRES   REMARKS
BRADSHAW FIELD SUNNY     73  38  27 SE15G28   30.30R
MK VISITOR CEN   N/A      0   0 100 MISG        N/A
MAUNA KEA*       N/A     46  -6  11 S10         N/A
MAUNA LOA*     NOT AVBL
MAUNA LOA 1*   NOT AVBL
PTA KIPUKA*      N/A     72  50  46 NW6G14      N/A
PTA RANGE 17*    N/A     68  48  49 W9          N/A
PTA WEST*        N/A     73  50  43 NW5         N/A
NENE CABIN*    NOT AVBL
AHUMOA*        NOT AVBL
PTA PORTABLE*  NOT AVBL
PUU MALI*      NOT AVBL
$$

HIC003-262000-
NORTHWEST ISLANDS-

CITY           SKY/WX    TMP DP  RH WIND       PRES   REMARKS
MIDWAY ISLAND  PTSUNNY   81  75  83 S10       30.03R
MIDWAY NOS*    NOT AVBL
FRENCH FRIGATE NOT AVBL
$$

PHZ110>124-180-262000-
BUOY REPORTS

STATION/POSITION TIME  TEMP    WIND        PRES    WAVE   SWELL
                       AIR SEA DIR/SP/G            HT/PER HT/DIR
                 (UTC) (F)     (DEG/KT/KT) (MB)    (FT/S) (FT/D)
BUOY 51001       NOT AVBL
BUOY 51101       NOT AVBL
BUOY 51100       1900      77   70/ 14/ 16   N/A
BUOY 51003       1800   80 81   60/ 10/ 12 1013.7R   5/ 6   5
BUOY 51004       1818   80 80   70/ 17/ 21 1013.1R   7/ 9   3/110
BARBERS PT BUOY  NOT AVBL
WAIMEA BAY BUOY  1900      80                N/A     3/ 7
KAILUA BAY BUOY  1900      80                N/A     5/ 7
LANAI BUOY       1900      80                N/A     2/13   2/220
BARBERS PT 2     1900      81                N/A     4/ 7   2/180
PAUWELA MAUI     1900      79                N/A     5/ 9
HILO             NOT AVBL
KANEOHE BAY BUOY 1900      79                N/A     4/ 7
HANALEI KAUAI    NOT AVBL
KAHULUI HARBOR   1900   78 80  360/ 10/ 12 1015.2R
HONOLULU HARBOR  1900   81     340/  2/  7 1015.1R
KILO NALU        NOT AVBL
HILO HARBOR      1900   81      CALM  /  1 1014.7R
MOKUOLOE         1900      82              1015.7S
NAWILIWILI       1900      80                N/A
WHOTS BUOY       NOT AVBL
BUOY 51028       NOT AVBL
$$

......................KEY........................................
  SKY/WX - SKY CONDITIONS/PRESENT WEATHER
  TMP    - TEMPERATURE IN FAHRENHEIT
  DWPT   - DEWPOINT IN FAHRENHEIT
  RH     - RELATIVE HUMIDITY IN PERCENT
  WIND   - DIRECTION AND SPEED /MPH FOR ISLANDS...KTS FOR BUOYS/
  PRES   - MEAN SEA LEVEL PRESSURE IN INCHES OF HG
  VSB    - VISIBILITY IN MILES
  HX     - HEAT INDEX
  WCI    - WIND CHILL INDEX
  VRB    - VARIABLE WIND DIRECTION
  N/A    - NOT AVAILABLE


USA.gov is the U.S. government's official web portal to all federal, state and local government web resources and services.